Terminal Aerodrome Forecast
Issued by NWS Pittsburgh, PA

Current Version | Previous Version | Graphics & Text | Print | Product List | Glossary On
Versions: 1 2 3 4 5 6 7 8 9 10 11 12 13 14 15 16 17 18 19 20 21 22 23 24 25 26 27 28 29 30 31 32 33 34 35 36 37 38 39 40
000
FTUS41 KPBZ 280800 AAB
TAFPIT
TAF AMD
KPIT 280857Z 2809/2912 31005KT 5SM -SN BR BKN012 OVC018
      TEMPO 2809/2810 1SM -SN OVC010
     FM281000 21005KT P6SM BKN025
     FM281500 26008KT P6SM BKN035
     FM290000 18003KT P6SM BKN050=

USA.gov is the U.S. government's official web portal to all federal, state and local government web resources and services.